Tracking 20945 objects as of 9-Jul-2020
HD Live streaming from Space Station
objects crossing your sky now

COSMOS 2251 DEB

Track COSMOS 2251 DEB now!
10-day predictions


NORAD ID: 34755
Int'l Code: 1993-036ZZ
Perigee: 777.9 km
Apogee: 1,405.8 km
Inclination: 73.9 °
Period: 106.9 minutes
Semi major axis: 7462 km
RCS: 0.0048 m2 (small)
Launch date: June 16, 1993
Source: Commonwealth of Independent States (former USSR) (CIS)
Launch site: PLESETSK MISSILE AND SPACE COMPLEX (PKMTR)

Note: This is SATELLITE DEBRIS
aabbcc
Your satellite tracking list
Your tracking list is empty




NASA's NSSDC Master Catalog

Two Line Element Set (TLE):
1 34755U 93036ZZ  20190.82437266 +.00000185 +00000-0 +20250-3 0  9991
2 34755 073.9263 222.4668 0420700 250.1722 291.2117 13.46623363558051
Source of the keplerian elements: AFSPC